TimeCST,TemperatureF,Dew PointF,Humidity,Sea Level PressureIn,VisibilityMPH,Wind Direction,Wind SpeedMPH,Gust SpeedMPH,PrecipitationIn,Events,Conditions,WindDirDegrees,DateUTC
12:14 AM,21.2,19.4,93,30.01,10.0,SSW,6.9,-,N/A,,Overcast,210,2013-01-02 06:14:00
12:34 AM,21.2,19.4,93,30.00,10.0,SW,6.9,-,N/A,,Overcast,220,2013-01-02 06:34:00
12:54 AM,21.2,19.4,93,29.99,10.0,SSW,8.1,-,N/A,,Overcast,210,2013-01-02 06:54:00
1:14 AM,21.2,19.4,93,29.99,10.0,SSW,8.1,-,N/A,,Overcast,210,2013-01-02 07:14:00
1:34 AM,21.2,19.4,93,29.98,10.0,SW,5.8,-,N/A,,Overcast,220,2013-01-02 07:34:00
1:54 AM,21.2,19.4,93,29.98,10.0,SW,6.9,-,N/A,,Overcast,220,2013-01-02 07:54:00
2:14 AM,21.2,17.6,86,29.98,10.0,South,6.9,-,N/A,,Overcast,190,2013-01-02 08:14:00
2:34 AM,21.2,17.6,86,29.98,10.0,SSW,6.9,-,N/A,,Overcast,210,2013-01-02 08:34:00
2:54 AM,21.2,17.6,86,29.98,10.0,SSW,8.1,-,N/A,,Overcast,210,2013-01-02 08:54:00
3:34 AM,19.4,17.6,93,29.98,10.0,SW,8.1,-,N/A,,Overcast,220,2013-01-02 09:34:00
3:54 AM,19.4,17.6,93,29.97,10.0,South,8.1,-,N/A,,Overcast,190,2013-01-02 09:54:00
4:14 AM,19.4,17.6,93,29.96,10.0,SSW,9.2,-,N/A,,Overcast,200,2013-01-02 10:14:00
4:34 AM,19.4,17.6,93,29.95,10.0,South,8.1,-,N/A,,Overcast,170,2013-01-02 10:34:00
4:54 AM,19.4,17.6,93,29.95,7.0,SSE,6.9,-,N/A,,Overcast,160,2013-01-02 10:54:00
5:14 AM,19.4,17.6,93,29.94,7.0,SE,5.8,-,N/A,,Overcast,140,2013-01-02 11:14:00
5:34 AM,19.4,17.6,93,29.95,7.0,SSE,5.8,-,N/A,,Overcast,160,2013-01-02 11:34:00
6:14 AM,19.4,17.6,93,29.94,7.0,SSE,8.1,-,N/A,,Overcast,160,2013-01-02 12:14:00
6:33 AM,19.4,17.6,93,29.94,5.0,South,8.1,-,N/A,,Overcast,180,2013-01-02 12:33:00
6:54 AM,19.4,17.6,93,29.95,7.0,SSW,6.9,-,N/A,,Overcast,210,2013-01-02 12:54:00
7:45 AM,17.6,15.8,93,29.95,3.0,SSE,8.1,-,N/A,,Overcast,160,2013-01-02 13:45:00
8:45 AM,17.6,15.8,93,29.95,4.0,South,9.2,-,N/A,,Overcast,190,2013-01-02 14:45:00
9:45 AM,17.6,14.0,86,29.97,5.0,South,6.9,-,N/A,Snow,Light Snow,170,2013-01-02 15:45:00
10:55 AM,17.6,14.0,86,29.97,3.0,South,5.8,-,N/A,Snow,Light Snow,190,2013-01-02 16:55:00
11:55 AM,17.6,14.0,86,29.94,3.0,South,5.8,-,N/A,Snow,Light Snow,180,2013-01-02 17:55:00
12:45 PM,17.6,14.0,86,29.94,3.0,South,5.8,-,N/A,Snow,Light Snow,170,2013-01-02 18:45:00
1:45 PM,17.6,15.8,93,29.94,2.0,South,5.8,-,N/A,Snow,Light Snow,190,2013-01-02 19:45:00
2:15 PM,17.6,15.8,93,29.94,7.0,SSE,5.8,-,N/A,,Overcast,160,2013-01-02 20:15:00
2:50 PM,19.4,15.8,86,29.95,5.0,SSE,3.5,-,N/A,Snow,Light Snow,150,2013-01-02 20:50:00
4:45 PM,19.4,15.8,86,29.98,7.0,South,3.5,-,N/A,,Overcast,170,2013-01-02 22:45:00
5:50 PM,19.4,15.8,86,30.00,7.0,SE,4.6,-,N/A,,Overcast,140,2013-01-02 23:50:00
6:55 PM,19.4,15.8,86,30.00,7.0,SSE,3.5,-,N/A,,Overcast,160,2013-01-03 00:55:00
7:50 PM,19.4,17.6,93,30.01,5.0,South,4.6,-,N/A,Snow,Light Snow,180,2013-01-03 01:50:00
8:50 PM,19.4,19.4,100,30.01,2.0,South,4.6,-,N/A,Snow,Light Snow,190,2013-01-03 02:50:00
9:14 PM,19.4,19.4,100,30.02,2.0,Calm,Calm,-,N/A,,Overcast,0,2013-01-03 03:14:00
9:34 PM,21.2,19.4,93,30.02,2.5,SW,3.5,-,N/A,,Overcast,230,2013-01-03 03:34:00
9:53 PM,21.2,19.4,93,30.03,2.5,Calm,Calm,-,N/A,,Overcast,0,2013-01-03 03:53:00
10:14 PM,21.2,19.4,93,30.03,3.0,WSW,3.5,-,N/A,Snow,Light Snow,250,2013-01-03 04:14:00
10:34 PM,21.2,19.4,93,30.04,3.0,West,4.6,-,N/A,,Overcast,260,2013-01-03 04:34:00
10:54 PM,21.2,21.2,100,30.05,4.0,West,6.9,-,N/A,,Overcast,280,2013-01-03 04:54:00
11:14 PM,23.0,21.2,93,30.04,5.0,WNW,5.8,-,N/A,,Overcast,290,2013-01-03 05:14:00
11:33 PM,23.0,21.2,93,30.05,5.0,West,5.8,-,N/A,Snow,Light Snow,280,2013-01-03 05:33:00
11:54 PM,23.0,21.2,93,30.06,4.0,West,9.2,-,N/A,Snow,Light Snow,280,2013-01-03 05:54:00